CAPE
2362 2491 2461 1804 1310 48 253 9 1 22 94 302 257 198 283 288 249 290 253 174 235 300 296 308 382 349 181 165 169 155 116 82 47 0 6 6 3 5 23 46 1 0 0
2248 2352 1932 967 35 422 61 92 30 27 13 59 193 269 317 327 267 332 299 102 258 291 205 365 379 242 455 696 463 393 200 188 120 63 50 53 63 66 124 146 106 0 0
2071 1690 1342 98 229 48 0 21 2 17 32 33 90 273 260 328 353 393 309 310 288 209 292 391 418 419 448 606 537 205 137 177 147 85 58 44 70 53 32 102 102 63 7
1905 1588 940 189 379 126 0 0 0 0 0 15 16 65 238 427 373 308 277 362 387 361 384 490 552 277 299 436 413 355 330 276 220 74 70 56 59 88 52 40 54 41 34
2152 1661 1129 340 411 239 138 6 0 0 1 16 5 36 131 240 223 274 319 522 756 652 555 605 418 262 120 56 118 142 214 171 122 127 106 73 58 47 64 66 49 57 100
1996 1660 1002 460 540 383 184 66 0 0 0 64 9 27 177 182 26 0 217 724 891 746 670 631 500 70 49 0 14 25 56 172 234 272 144 124 133 197 83 73 45 14 13
1981 1570 667 656 629 432 171 134 77 45 21 46 55 114 303 360 52 14 9 619 954 860 790 721 476 122 14 45 8 0 6 0 34 119 77 87 119 131 101 26 26 36 37
1885 1271 843 665 603 474 311 165 210 211 18 118 196 352 365 584 136 36 22 450 736 801 785 742 407 205 44 6 24 31 48 40 60 8 11 12 7 3 11 27 26 26 32
1769 1223 1002 788 670 451 284 228 361 333 190 182 275 430 516 850 6 0 0 76 92 154 428 182 45 21 0 0 0 4 13 2 1 0 0 0 0 0 1 13 6 46 27
1828 1366 1040 822 665 396 317 254 336 309 327 297 283 361 323 639 29 1 1 1 20 11 1 3 0 0 0 0 0 1 3 2 2 0 0 4 4 5 1 11 6 52 48
1746 1315 947 720 544 470 576 566 554 476 422 461 503 709 276 320 35 18 0 0 6 1 0 35 8 0 0 0 0 2 3 0 0 1 1 3 4 5 6 11 19 38 84
1137 1114 931 760 553 526 656 662 700 686 703 871 572 91 388 465 26 0 1 0 0 31 129 42 0 0 0 0 0 0 0 0 0 1 1 1 2 0 0 0 0 2 19
1350 1033 743 576 698 667 676 932 891 871 978 787 72 154 267 130 42 0 1 1 0 4 5 0 0 0 0 0 0 0 0 0 0 0 0 0 0 0 0 0 0 3 11
1065 1005 830 862 798 770 672 673 627 558 509 106 136 144 156 36 22 0 0 0 0 0 0 0 0 0 0 0 0 0 0 0 0 0 0 0 0 0 0 0 0 3 14
902 884 796 458 294 4 2 2 0 1 1 60 150 151 124 222 78 0 0 0 0 0 0 0 0 0 1 0 0 0 0 0 0 0 0 0 0 0 0 0 0 7 13
529 424 307 161 0 0 0 0 0 0 0 0 0 58 0 0 0 0 0 0 0 0 0 0 0 0 0 0 0 0 0 0 0 0 0 0 0 0 0 0 0 0 11
40 0 0 4 0 0 1 0 0 0 0 0 0 0 0 0 0 0 0 0 0 0 0 0 0 0 0 0 0 0 0 0 0 0 0 0 0 0 0 0 0 0 4
0 0 0 0 0 0 2 0 0 0 0 0 0 0 0 0 0 0 0 0 0 0 0 0 0 0 0 0 0 0 0 0 0 0 0 0 0 0 0 0 0 2 4
24 0 0 0 52 29 41 2 0 0 0 0 0 0 0 0 0 0 0 0 0 0 0 0 0 0 0 0 0 0 0 0 0 0 0 0 0 0 0 0 0 0 0
117 22 197 367 107 131 66 15 0 0 0 0 0 0 0 0 0 0 0 0 0 0 0 0 0 0 0 0 0 0 0 0 0 0 0 0 0 0 0 0 0 0 0
356 197 54 227 260 220 186 116 40 0 0 0 0 0 0 0 0 0 0 0 0 0 0 0 0 0 0 0 0 0 0 0 0 0 0 0 0 0 0 0 0 0 0
218 243 237 264 254 208 216 155 94 71 32 3 0 0 0 0 0 0 0 0 0 0 1 2 0 0 0 0 0 0 0 0 0 0 0 0 0 0 0 0 0 0 0
297 369 333 335 357 55 154 231 165 73 30 2 0 0 0 0 0 0 0 0 0 0 0 0 0 0 0 0 0 0 0 0 0 0 0 0 0 0 0 0 0 0 0
239 277 336 348 281 272 335 280 145 6 1 1 10 5 20 20 7 0 0 0 0 0 0 0 0 0 0 0 0 0 0 0 0 0 0 0 0 0 0 0 0 0 0
93 157 196 266 273 279 260 235 53 12 7 36 18 27 38 38 14 0 0 0 0 0 0 0 0 0 0 0 0 0 0 0 0 0 0 0 0 0 0 0 0 0 0
0 1 28 118 176 209 234 192 74 76 78 25 23 32 30 24 19 7 0 0 0 0 0 0 0 0 0 0 0 0 0 0 0 0 0 0 0 0 0 0 0 0 0
CIN
-197 -164 -133 -185 -202 -271 -340 -148 -546 -357 -265 -144 -138 -121 -88 -71 -59 -23 -29 -25 -8 -1 -9 -5 -1 -0 -38 -94 -110 -122 -0 -0 -0 -0 -0 -0 -0 -0 -11 -26 -0 -0 -0
-244 -210 -228 -313 -650 -306 -237 -366 -440 -345 -286 -213 -147 -108 -79 -37 -27 -12 -18 -24 -6 -2 -13 -3 -2 -33 -7 -5 -34 -30 -97 -97 -0 -0 -1 -0 -0 -32 -9 -9 -25 -0 -0
-243 -289 -293 -704 -437 -420 -0 -342 -244 -262 -268 -232 -164 -98 -89 -31 -20 -18 -18 -9 -9 -28 -12 -7 -6 -4 -10 -9 -18 -76 -0 -90 -0 -0 -0 -0 -34 -31 -49 -12 -10 -12 -43
-274 -291 -364 -558 -438 -459 -0 -0 -0 -0 -0 -291 -258 -147 -79 -34 -36 -31 -27 -26 -18 -15 -18 -11 -7 -13 -11 -7 -11 -9 -3 -39 -65 -0 -1 -19 -30 -9 -69 -83 -92 -86 -0
-255 -267 -333 -552 -453 -428 -371 -368 -0 -0 -53 -278 -329 -202 -106 -62 -64 -44 -31 -23 -10 -10 -8 -11 -10 -31 -62 -73 -17 -7 -21 -41 -0 -0 -0 -0 -3 -26 -48 -59 -81 -95 -0
-273 -267 -393 -537 -440 -398 -412 -404 -0 -0 -0 -294 -297 -230 -115 -90 -138 -0 -77 -15 -10 -13 -9 -8 -9 -74 -82 -0 -118 -94 -49 -32 -0 -0 -0 -1 -1 -0 -58 -48 -0 -0 -0
-269 -306 -497 -451 -405 -416 -488 -414 -342 -322 -305 -281 -215 -137 -81 -82 -122 -219 -226 -23 -10 -7 -12 -10 -14 -38 -21 -43 -19 -0 -13 -18 -37 -0 -0 -1 -10 -0 -25 -0 -0 -0 -0
-292 -350 -399 -403 -348 -323 -349 -388 -265 -194 -284 -193 -113 -66 -77 -46 -127 -243 -297 -60 -32 -12 -15 -14 -22 -29 -57 -27 -64 -45 -25 -13 -4 -0 -0 -0 -0 -0 -0 -0 -0 -0 -0
-279 -339 -341 -344 -315 -336 -351 -345 -171 -114 -119 -116 -55 -48 -25 -26 -38 -0 -0 -51 -33 -45 -16 -45 -83 -81 -0 -0 -0 -6 -21 -2 -0 -0 -0 -0 -0 -0 -0 -0 -0 -0 -0
-274 -317 -360 -337 -288 -317 -279 -227 -145 -90 -51 -49 -43 -30 -86 -101 -303 -220 -273 -17 -54 -34 -2 -112 -0 -0 -0 -0 -0 -0 -0 -0 -0 -0 -0 -0 -1 -0 -5 -0 -0 -0 -0
-287 -337 -368 -391 -306 -266 -165 -99 -74 -58 -32 -29 -14 -36 -134 -152 -275 -297 -45 -0 -124 -61 -0 -31 -35 -0 -0 -0 -0 -0 -0 -0 -0 -0 -0 -0 -0 -0 -0 -1 -11 -1 -0
-323 -380 -354 -299 -274 -207 -129 -75 -44 -24 -0 -0 -32 -140 -87 -92 -65 -0 -0 -0 -0 -33 -3 -32 -0 -0 -0 -0 -0 -0 -0 -0 -0 -0 -0 -0 -0 -0 -0 -0 -0 -0 -7
-198 -306 -348 -306 -190 -176 -113 -28 -9 -4 -0 -3 -134 -124 -79 -116 -173 -0 -0 -0 -0 -53 -68 -0 -0 -0 -0 -0 -0 -0 -0 -0 -0 -0 -0 -0 -0 -0 -0 -0 -0 -0 -0
-226 -241 -200 -130 -93 -85 -83 -39 -18 -18 -29 -117 -105 -81 -90 -152 -147 -0 -0 -0 -0 -0 -0 -0 -0 -0 -0 -0 -0 -0 -0 -0 -0 -0 -0 -0 -0 -0 -0 -0 -0 -0 -0
-185 -111 -95 -136 -175 -0 -0 -0 -0 -0 -64 -83 -59 -72 -83 -39 -64 -0 -0 -0 -0 -0 -0 -0 -0 -0 -0 -0 -0 -0 -0 -0 -0 -0 -0 -0 -0 -0 -0 -0 -0 -0 -0
-120 -116 -115 -127 -0 -0 -0 -0 -0 -0 -0 -0 -0 -9 -0 -0 -0 -0 -0 -0 -0 -0 -0 -0 -0 -0 -0 -0 -0 -0 -0 -0 -0 -0 -0 -0 -0 -0 -0 -0 -0 -0 -0
-172 -0 -5 -150 -0 -0 -0 -0 -0 -0 -0 -0 -0 -0 -0 -0 -0 -0 -0 -0 -0 -0 -0 -0 -0 -0 -0 -0 -0 -0 -0 -0 -0 -0 -0 -0 -0 -0 -0 -0 -0 -0 -0
-0 -0 -0 -0 -0 -0 -0 -0 -0 -0 -0 -0 -0 -0 -0 -0 -0 -0 -0 -0 -0 -0 -0 -0 -0 -0 -0 -0 -0 -0 -0 -0 -0 -0 -0 -0 -0 -0 -0 -0 -0 -0 -0
-138 -0 -0 -0 -92 -132 -106 -87 -0 -0 -0 -0 -0 -0 -0 -0 -0 -0 -0 -0 -0 -0 -0 -0 -0 -0 -0 -0 -0 -0 -0 -0 -0 -0 -0 -0 -0 -0 -0 -0 -0 -0 -0
-104 -27 -107 -47 -122 -93 -113 -137 -0 -0 -0 -0 -0 -0 -0 -0 -0 -0 -0 -0 -0 -0 -0 -0 -0 -0 -0 -0 -0 -0 -0 -0 -0 -0 -0 -0 -0 -0 -0 -0 -0 -0 -0
-45 -63 -142 -47 -47 -50 -60 -54 -65 -0 -0 -0 -0 -0 -0 -0 -0 -0 -0 -0 -0 -0 -0 -0 -0 -0 -0 -0 -0 -0 -0 -0 -0 -0 -0 -0 -0 -0 -0 -0 -0 -0 -0
-43 -43 -35 -23 -32 -44 -37 -33 -34 -24 -29 -32 -0 -0 -0 -0 -0 -0 -0 -0 -0 -0 -0 -0 -0 -0 -0 -0 -0 -0 -0 -0 -0 -0 -0 -0 -0 -0 -0 -0 -0 -0 -0
-25 -29 -32 -38 -33 -144 -58 -17 -17 -26 -31 -25 -13 -0 -0 -0 -0 -0 -0 -0 -0 -0 -0 -0 -0 -0 -0 -0 -0 -0 -0 -0 -0 -0 -0 -0 -0 -0 -0 -0 -0 -0 -0
-27 -23 -24 -26 -34 -28 -14 -14 -41 -5 -48 -55 -13 -8 -8 -7 -14 -0 -0 -0 -0 -0 -0 -0 -0 -0 -0 -0 -0 -0 -0 -0 -0 -0 -0 -0 -0 -0 -0 -0 -0 -0 -0
-33 -18 -15 -10 -11 -9 -6 -0 -7 -29 -57 -4 -3 -4 -5 -7 -15 -0 -0 -0 -0 -0 -0 -0 -0 -0 -0 -0 -0 -0 -0 -0 -0 -0 -0 -0 -0 -0 -0 -0 -0 -0 -0
-0 -5 -9 -0 -0 -0 -1 -1 -8 -7 -0 -1 -3 -3 -5 -13 -15 -22 -0 -0 -0 -0 -0 -0 -0 -0 -0 -0 -0 -0 -0 -0 -0 -0 -0 -0 -0 -0 -0 -0 -0 -0 -0
Wind_Speed
17 16 15 14 11 8 9 6 8 5 6 7 8 9 10 9 8 8 7 7 8 7 7 8 9 8 7 7 7 7 8 8 10 11 9 8 11 11 10 10 11 11 11
17 16 14 11 13 15 9 6 7 5 5 6 7 9 10 9 8 8 8 7 9 10 8 8 9 7 10 9 7 9 9 9 10 14 12 10 12 11 12 13 12 11 11
16 16 14 14 16 14 13 13 5 4 2 7 8 10 9 10 9 9 10 10 10 9 8 8 9 8 10 9 9 8 9 8 9 10 13 11 10 10 12 13 12 13 12
16 15 15 16 15 15 14 14 13 11 12 13 11 9 9 10 10 11 10 10 11 9 9 9 10 9 9 9 7 9 10 9 9 8 10 11 10 9 9 12 12 11 12
15 15 16 17 16 16 17 16 14 14 12 9 10 10 12 12 10 12 12 11 10 10 9 9 10 10 10 9 7 9 9 9 10 9 11 11 11 10 11 12 13 13 13
15 16 16 18 18 19 17 16 15 14 15 12 11 12 14 11 10 13 13 10 10 10 9 10 9 9 11 10 11 12 10 11 12 10 11 12 12 13 11 12 13 14 15
15 15 18 18 18 19 17 16 16 16 13 13 12 12 15 11 14 15 13 10 9 10 9 10 9 6 5 7 7 9 11 10 12 10 10 11 14 15 13 15 15 13 13
14 15 16 17 17 16 17 19 17 13 15 14 14 14 13 12 11 11 7 8 8 11 10 9 8 8 5 5 8 9 9 7 8 7 9 11 12 14 14 12 13 14 15
14 15 16 17 18 18 18 17 14 12 13 14 12 12 12 10 6 6 3 4 7 10 8 7 7 7 2 5 8 9 9 8 4 10 11 14 16 18 17 10 12 13 15
14 15 17 16 16 17 17 16 11 11 12 11 12 10 13 13 13 15 10 4 7 6 4 6 7 6 2 5 7 6 7 7 8 11 12 11 11 12 13 12 11 11 15
14 14 14 15 15 14 12 11 11 10 12 11 14 9 7 9 8 13 15 6 7 7 8 8 5 5 6 6 4 5 6 8 10 10 10 9 10 10 9 9 11 12 13
10 15 13 12 11 11 12 10 10 10 12 11 8 4 5 5 3 5 7 10 9 10 9 4 3 4 7 5 6 2 6 8 7 8 8 8 9 10 10 12 15 15 13
12 11 11 11 11 10 11 11 9 11 9 8 6 5 4 4 4 4 6 7 8 7 4 2 3 3 5 7 2 3 7 5 6 8 8 8 9 10 13 13 14 16 17
8 8 10 10 10 7 6 6 6 6 7 5 4 5 4 4 5 6 6 6 6 5 5 3 2 3 2 1 4 3 4 5 6 7 8 9 8 9 11 11 12 12 12
8 8 8 7 8 7 6 3 0 3 2 3 4 3 5 6 5 5 4 4 3 2 2 3 4 4 4 3 3 3 4 4 5 6 7 8 9 10 11 11 11 11 10
8 7 5 5 6 5 5 6 13 8 8 5 5 2 4 11 11 9 5 5 7 8 4 4 4 3 3 3 3 4 3 4 5 6 7 8 9 10 10 12 10 10 11
7 7 6 5 6 5 5 5 6 7 12 10 8 8 10 10 9 9 8 9 7 6 6 4 3 3 3 3 3 4 5 4 6 6 7 8 9 10 11 10 10 8 11
7 6 5 5 5 5 5 5 6 8 8 7 5 6 8 10 9 9 9 9 4 5 3 3 3 3 2 2 3 4 4 4 5 5 6 7 8 9 10 10 10 10 11
4 4 5 4 4 5 6 6 6 7 8 8 7 4 7 8 8 6 2 2 3 3 3 3 2 2 2 2 3 4 4 4 5 5 5 7 8 9 10 10 10 9 10
4 5 3 4 5 5 6 6 7 6 6 7 7 7 7 5 5 4 2 2 2 2 3 3 3 1 1 2 3 3 3 2 3 4 5 6 7 8 9 11 10 11 11
3 5 3 5 5 5 5 6 6 7 8 7 7 7 8 7 6 5 4 4 3 3 4 3 2 1 2 2 2 1 2 2 3 5 5 6 7 8 9 9 9 9 9
4 4 5 4 4 5 6 6 6 6 6 7 6 7 6 6 3 4 4 4 3 3 2 2 1 1 2 1 0 1 1 3 4 5 5 6 7 8 8 9 10 9 9
4 5 4 4 4 5 5 6 6 5 6 6 6 7 8 7 5 4 4 3 3 3 3 3 2 2 2 2 1 1 2 4 4 4 6 6 6 7 8 8 9 9 9
4 3 3 4 5 5 6 7 7 7 7 7 7 6 6 6 6 6 5 4 4 4 4 3 2 1 3 3 2 2 1 3 4 4 6 6 6 7 7 8 8 10 9
3 3 4 4 5 5 7 8 7 7 8 8 6 5 5 6 6 6 6 5 5 5 5 4 3 3 4 4 4 4 5 2 7 8 5 5 6 7 7 7 8 8 10
3 3 2 3 4 4 5 6 7 8 8 6 5 6 6 6 5 6 7 7 6 6 6 5 4 4 5 5 5 2 2 3 5 5 7 3 4 5 5 7 9 7 9
Wind_Direction
201 199 200 197 175 139 168 199 153 182 183 205 199 204 209 206 211 217 233 241 236 243 239 240 246 246 253 248 237 247 249 246 268 287 285 270 281 284 295 291 286 286 280
199 196 192 164 149 166 187 188 151 153 167 213 218 220 218 216 217 224 237 245 239 241 237 236 252 248 245 246 236 246 252 250 259 271 286 286 273 289 290 291 287 287 285
197 194 184 169 170 168 168 146 143 151 173 221 222 226 220 226 220 222 228 237 240 243 249 253 260 264 261 264 249 253 255 250 247 261 279 288 290 295 298 286 284 287 281
199 193 182 176 172 170 163 147 166 146 209 209 207 216 218 225 225 229 225 228 241 245 246 250 255 251 255 265 268 265 265 266 265 253 265 278 279 284 281 284 284 283 289
188 186 184 180 175 169 173 170 174 187 211 217 197 211 220 225 225 224 230 230 238 247 250 252 245 255 258 260 266 274 281 269 271 270 270 279 282 290 296 299 294 290 289
183 189 179 179 175 184 182 184 182 200 210 201 200 210 221 223 211 222 232 233 239 246 255 256 248 232 243 247 252 257 269 270 275 280 285 291 295 285 294 294 296 293 293
185 181 181 185 187 189 185 185 198 213 220 218 211 215 226 220 220 225 219 240 249 248 254 260 263 256 242 269 262 251 249 237 253 277 280 276 290 297 306 298 289 282 281
179 180 189 190 194 190 190 196 203 214 221 223 223 220 225 224 210 208 211 247 259 261 254 259 262 270 259 268 279 279 286 282 269 264 282 287 290 300 299 291 283 279 278
178 187 194 195 192 187 197 200 204 210 229 229 231 226 227 243 118 89 129 326 304 288 277 246 231 253 262 238 272 280 286 287 228 227 252 269 272 275 276 284 277 284 291
183 189 189 197 198 197 199 203 205 212 232 237 231 212 213 214 178 173 125 150 273 270 264 246 224 254 237 223 261 273 281 302 310 311 307 296 285 291 276 269 281 280 290
184 179 186 184 198 201 199 201 196 197 220 214 217 219 223 221 164 146 156 169 216 245 241 232 218 192 213 198 243 266 301 321 301 296 300 306 307 305 301 301 298 289 292
171 171 168 179 190 193 191 203 212 209 216 216 219 201 205 199 199 160 178 202 226 248 248 235 180 181 194 206 240 11 301 293 296 301 301 306 311 312 312 311 305 293 287
195 158 152 178 182 179 189 203 203 204 217 217 194 216 203 181 185 196 210 178 189 227 246 83 99 215 194 210 180 311 287 298 307 298 305 309 313 312 306 301 304 304 299
151 153 169 172 179 183 184 196 201 206 213 210 201 202 172 191 189 161 153 159 150 201 170 192 41 74 25 316 256 254 314 313 312 302 309 309 312 312 314 318 313 313 308
137 163 155 145 141 114 91 49 293 93 329 217 215 206 199 198 167 125 116 170 192 99 211 202 209 216 237 266 295 306 307 303 300 314 310 318 321 318 318 322 319 315 309
143 151 149 143 129 136 136 111 49 28 23 352 328 324 77 70 97 106 122 117 118 152 221 241 231 232 257 289 301 312 297 298 323 314 319 326 322 322 325 319 321 331 318
138 132 141 159 148 150 146 163 141 84 74 62 82 91 95 123 110 108 104 119 144 169 240 237 238 234 260 277 296 303 309 327 307 320 329 327 324 322 324 326 325 325 330
104 90 146 169 161 158 176 170 154 153 143 128 51 69 87 98 105 111 127 161 160 220 243 225 218 210 230 264 301 310 309 318 329 335 331 333 328 330 329 330 330 334 334
87 117 150 174 178 161 165 157 152 148 147 141 134 124 108 107 119 124 175 289 285 253 230 233 221 205 218 278 312 302 305 339 333 331 339 337 334 334 337 335 333 333 336
109 115 140 153 157 165 164 160 153 151 151 157 171 163 156 170 178 171 168 179 213 207 184 185 184 203 282 307 308 313 308 318 347 343 343 337 338 336 341 340 342 348 345
166 146 145 166 170 158 164 166 165 169 175 179 177 168 177 194 180 175 174 176 191 172 183 181 165 243 257 292 317 308 313 346 358 347 337 337 339 342 344 344 345 352 356
160 160 174 177 166 170 176 167 171 178 181 182 170 151 168 233 202 185 176 170 177 183 186 183 189 303 303 290 239 299 2 5 4 349 335 334 341 347 347 350 353 356 2
172 174 178 175 174 156 178 173 166 177 182 189 185 179 185 212 203 189 176 180 181 167 156 171 167 190 182 185 179 24 351 17 2 336 329 334 342 354 350 357 359 357 0
155 169 186 184 182 185 182 177 180 188 183 196 198 201 205 209 202 186 184 177 169 159 166 172 178 203 171 198 193 213 302 356 329 321 324 333 344 352 359 3 6 11 6
149 166 180 176 180 195 189 201 194 192 203 203 200 202 206 206 197 190 187 181 174 174 175 177 183 178 198 211 233 246 77 354 299 328 306 336 354 357 9 13 7 16 21
106 127 154 179 192 201 208 210 212 209 216 212 219 215 209 201 202 198 195 190 186 183 177 181 181 195 192 203 223 78 55 297 299 303 301 350 357 15 10 17 17 18 28